Погода в Ивановке

Россия / Липецкая область     52°04′00″N   38°16′30″E
темп.,
°C
ветер,
м/с
пор.,
м/с
влажн.,
%
обл.,
%
осадки,
мм/ч
давл.,
гПа
погр.,
м
13 апреля, вт
вт1300:00+13вюв5126380 0.0 1024249
03:00+11вюв41268100 0.0 1024222
06:00+10вюв41266100 0.0 1025221
09:00+14юв61153100 0.0 1025394
12:00+19юв7113588 0.0 10231211
15:00+20юв812305 0.0 10221792
18:00+18юв610435 0.0 1021526
21:00+14юв4105857 0.0 1022226
14 апреля, ср
ср1400:00+12юв3380100 0.0 102249
03:00+10ююв2289100 0.0 102123
06:00+9в228643 0.0 102018
09:00+13юв474869 0.0 1020414
12:00+17юв573398 0.0 1018984
15:00+19юв6728100 0.0 10172178
18:00+15ю4743100 0.0 1017371
21:00+13ююв2249100 0.0 101722
15 апреля, чт
чт1500:00+12вюв3349100 0.0 101630
03:00+12св1152100 0.0 101514
06:00+10ссв3466100 0.1 101574
09:00+14вюв576021 0.2 1014581
12:00+18ююв4642100 0.0 10132397
15:00+17ю1250100 0.0 1013945
18:00+16юв135672 0.1 101397
21:00+12ююв226324 0.2 101413
16 апреля, пт
пт1600:00+11ююз347197 0.0 101472
03:00+9з2283100 0.0 101417
06:00+9зюз128874 0.4 101567
09:00+12ююв467299 0.5 1015471
12:00+16ююв5752100 0.1 10151761
15:00+17ююв5742100 0.2 10152139
18:00+14юз475397 0.0 1015266
21:00+11зюз4768100 0.0 1017267
17 апреля, сб
сб1700:00+10зсз3570100 0.0 1018185
03:00+9з3474100 0.1 1018105
06:00+8з2486100 0.6 1017207
09:00+11с5779100 1.6 1016485
12:00+14вюв5867100 0.3 10161147
15:00+12ю5674100 1.0 1018795
18:00+8юз5681100 0.0 1020382
21:00+7зсз128595 0.0 1021161